Location: Recife
(8.0585°S, 34.8848°W)
Time: 09:59:14
(UTC-03:00)

Courier 1B Rocket - Pass Details

Date: 20 April 2026
Orbit: 920 x 1201 km, 28.2° (Epoch: 13 May)

Event Time Altitude Azimuth Distance (km) Brightness Sun altitude
Rises 09:09:46 0° 226° (SW) 3,783 7.7 52.4°
Reaches altitude 10° 09:13:17 10° 209° (SSW) 2,884 7.3 53.2°
Maximum altitude 09:18:16 20° 164° (SSE) 2,304 7.1 54.2°
Drops below altitude 10° 09:23:28 10° 119° (ESE) 3,026 7.9 55.3°
Sets 09:27:15 0° 103° (ESE) 4,029 8.5 56.1°
